INTELSAT 28 (IS-28)

Last updated on Mon Sep 15 2025 00:02:47 GMT+0000 (Coordinated Universal Time)

1 37392U 11016A 25257.22226328 -.00000237 00000+0 00000+0 0 9992 2 37392 1.0876 86.2469 0004458 96.0325 219.4917 1.00270909 50511
UTC large
Height (km)
Speed (km/s)
/
Latitude / Longitude
Inclination (degrees)
Orbital Period (minutes)
Azimuth
Elevation
Range (km)
Doppler Factor

Next 0 passes for location: London (51.5072 / 0.1276)

Sorry there are no passes over London.